User: anonymous   Login
Location: Unspecified
(0.0000°N, 0.0000°E)
Time: 07:49:05
(UTC+00:00)
Language:

Cosmos 1624 - Orbit

View from above orbital plane
View from above orbital plane
View from above satellite
View from above satellite

Ground track
Ground track

The orbit data is extracted from the following two-line orbital elements,

1 15482U 85006A   18201.60707252 +.00000004 +00000-0 +11178-4 0  9996
2 15482 074.0425 071.1212 0015409 298.0371 088.8291 14.32988911750416
Epoch (UTC): 20 July 2018 14:34:11
Eccentricity: 0.0015409
inclination: 74.0425°
perigee height: 771 km
apogee height: 793 km
right ascension of ascending node: 71.1212°
argument of perigee: 298.0371°
revolutions per day: 14.32988911
mean anomaly at epoch: 88.8291°
orbit number at epoch: 75041

The dashed part of the orbit path shows where the satellite is in the earth's shadow,  

DLR